Time,TemperatureF,DewpointF,PressureIn,WindDirection,WindDirectionDegrees,WindSpeedMPH,WindSpeedGustMPH,Humidity,HourlyPrecipIn,Conditions,Clouds,dailyrainin,SolarRadiationWatts/m^2,SoftwareType,DateUTC
2013-03-20 00:13:00,34.4,23.0,30.39,South,174,2.0,5.0,63,0.00,,,0.00,0,weatherlink.com 1.10,2013-03-20 06:13:00,
2013-03-20 00:28:00,35.1,22.0,30.38,South,181,2.0,10.0,60,0.00,,,0.00,0,weatherlink.com 1.10,2013-03-20 06:28:00,
2013-03-20 00:43:00,33.8,22.0,30.38,South,182,3.0,3.0,62,0.00,,,0.00,0,weatherlink.com 1.10,2013-03-20 06:43:00,
2013-03-20 00:58:00,33.6,22.0,30.37,South,188,0.0,6.0,63,0.00,,,0.00,0,weatherlink.com 1.10,2013-03-20 06:58:00,
2013-03-20 01:13:00,33.3,21.0,30.36,South,189,1.0,3.0,62,0.00,,,0.00,0,weatherlink.com 1.10,2013-03-20 07:13:00,
2013-03-20 01:28:00,33.5,22.0,30.35,SSW,193,2.0,4.0,62,0.00,,,0.00,0,weatherlink.com 1.10,2013-03-20 07:28:00,
2013-03-20 01:43:00,30.9,23.0,30.35,SSW,205,1.0,4.0,72,0.00,,,0.00,0,weatherlink.com 1.10,2013-03-20 07:43:00,
2013-03-20 01:58:00,30.4,23.0,30.34,SSW,205,0.0,2.0,74,0.00,,,0.00,0,weatherlink.com 1.10,2013-03-20 07:58:00,
2013-03-20 02:14:00,30.2,23.0,30.33,SSW,202,3.0,4.0,74,0.00,,,0.00,0,weatherlink.com 1.10,2013-03-20 08:14:00,
2013-03-20 02:29:00,30.3,23.0,30.32,SSW,203,0.0,2.0,74,0.00,,,0.00,0,weatherlink.com 1.10,2013-03-20 08:29:00,
2013-03-20 02:44:00,30.1,23.0,30.31,SSW,202,0.0,2.0,74,0.00,,,0.00,0,weatherlink.com 1.10,2013-03-20 08:44:00,
2013-03-20 02:59:00,30.7,23.0,30.30,East,82,3.0,4.0,72,0.00,,,0.00,0,weatherlink.com 1.10,2013-03-20 08:59:00,
2013-03-20 03:14:00,31.9,22.0,30.29,ENE,77,2.0,5.0,68,0.00,,,0.00,0,weatherlink.com 1.10,2013-03-20 09:14:00,
2013-03-20 03:29:00,32.4,23.0,30.28,NE,50,5.0,6.0,67,0.00,,,0.00,0,weatherlink.com 1.10,2013-03-20 09:29:00,
2013-03-20 03:44:00,33.0,22.0,30.26,ENE,62,3.0,5.0,64,0.00,,,0.00,0,weatherlink.com 1.10,2013-03-20 09:44:00,
2013-03-20 03:59:00,33.1,22.0,30.26,NNE,30,1.0,4.0,65,0.00,,,0.00,0,weatherlink.com 1.10,2013-03-20 09:59:00,
2013-03-20 04:14:00,32.6,22.0,30.25,NE,36,0.0,2.0,66,0.00,,,0.00,0,weatherlink.com 1.10,2013-03-20 10:14:00,
2013-03-20 04:29:00,32.3,22.0,30.24,NE,55,3.0,3.0,66,0.00,,,0.00,0,weatherlink.com 1.10,2013-03-20 10:29:00,
2013-03-20 04:44:00,32.4,22.0,30.23,NE,56,1.0,2.0,66,0.00,,,0.00,0,weatherlink.com 1.10,2013-03-20 10:44:00,
2013-03-20 04:59:00,31.7,23.0,30.22,NE,56,0.0,0.0,69,0.00,,,0.00,0,weatherlink.com 1.10,2013-03-20 10:59:00,
2013-03-20 05:14:00,31.7,23.0,30.21,NE,56,0.0,0.0,69,0.00,,,0.00,0,weatherlink.com 1.10,2013-03-20 11:14:00,
2013-03-20 05:29:00,31.5,23.0,30.20,ENE,66,4.0,4.0,70,0.00,,,0.00,0,weatherlink.com 1.10,2013-03-20 11:29:00,
2013-03-20 05:44:00,31.8,23.0,30.20,South,175,0.0,5.0,71,0.00,,,0.00,0,weatherlink.com 1.10,2013-03-20 11:44:00,
2013-03-20 05:59:00,30.9,23.0,30.19,SSW,210,6.0,7.0,73,0.00,,,0.00,0,weatherlink.com 1.10,2013-03-20 11:59:00,
2013-03-20 06:14:00,29.3,23.0,30.19,South,182,2.0,7.0,78,0.00,,,0.00,0,weatherlink.com 1.10,2013-03-20 12:14:00,
2013-03-20 06:29:00,29.5,24.0,30.19,SSE,166,4.0,8.0,79,0.00,,,0.00,0,weatherlink.com 1.10,2013-03-20 12:29:00,
2013-03-20 06:44:00,30.2,24.0,30.18,SSW,199,6.0,8.0,76,0.00,,,0.00,0,weatherlink.com 1.10,2013-03-20 12:44:00,
2013-03-20 06:59:00,29.0,24.0,30.19,NNE,32,0.0,4.0,82,0.00,,,0.00,0,weatherlink.com 1.10,2013-03-20 12:59:00,
2013-03-20 07:14:00,30.3,24.0,30.18,SSW,213,7.0,7.0,76,0.00,,,0.00,0,weatherlink.com 1.10,2013-03-20 13:14:00,
2013-03-20 07:29:00,29.0,24.0,30.18,SSW,194,1.0,6.0,80,0.00,,,0.00,0,weatherlink.com 1.10,2013-03-20 13:29:00,
2013-03-20 07:44:00,29.2,24.0,30.18,SSW,194,4.0,5.0,80,0.00,,,0.00,0,weatherlink.com 1.10,2013-03-20 13:44:00,
2013-03-20 07:59:00,30.1,24.0,30.18,SE,140,6.0,6.0,77,0.00,,,0.00,9,weatherlink.com 1.10,2013-03-20 13:59:00,
2013-03-20 08:14:00,30.8,23.0,30.18,South,190,7.0,11.0,74,0.00,,,0.00,16,weatherlink.com 1.10,2013-03-20 14:14:00,
2013-03-20 08:29:00,28.6,25.0,30.17,SSW,202,10.0,11.0,85,0.00,,,0.00,21,weatherlink.com 1.10,2013-03-20 14:29:00,
2013-03-20 08:44:00,29.6,25.0,30.17,SSE,167,6.0,13.0,84,0.00,,,0.00,35,weatherlink.com 1.10,2013-03-20 14:44:00,
2013-03-20 08:59:00,36.1,28.0,30.16,South,174,1.0,21.0,71,0.00,,,0.00,35,weatherlink.com 1.10,2013-03-20 14:59:00,
2013-03-20 09:15:00,38.5,30.0,30.15,SSE,163,12.0,30.0,72,0.00,,,0.00,39,weatherlink.com 1.10,2013-03-20 15:15:00,
2013-03-20 09:30:00,38.6,31.0,30.14,South,169,20.0,28.0,73,0.00,,,0.00,72,weatherlink.com 1.10,2013-03-20 15:30:00,
2013-03-20 09:45:00,39.3,31.0,30.14,SSE,148,16.0,20.0,73,0.00,,,0.00,109,weatherlink.com 1.10,2013-03-20 15:45:00,
2013-03-20 10:00:00,39.5,32.0,30.13,SSE,148,21.0,23.0,74,0.00,,,0.00,60,weatherlink.com 1.10,2013-03-20 16:00:00,
2013-03-20 10:15:00,40.2,32.0,30.13,SE,144,16.0,24.0,72,0.00,,,0.00,162,weatherlink.com 1.10,2013-03-20 16:15:00,
2013-03-20 10:30:00,41.0,33.0,30.12,SSE,147,17.0,24.0,72,0.00,,,0.00,153,weatherlink.com 1.10,2013-03-20 16:30:00,
2013-03-20 10:45:00,41.3,33.0,30.12,SSE,153,16.0,24.0,71,0.00,,,0.00,158,weatherlink.com 1.10,2013-03-20 16:45:00,
2013-03-20 11:00:00,42.1,33.0,30.12,SSE,163,15.0,21.0,71,0.00,,,0.00,174,weatherlink.com 1.10,2013-03-20 17:00:00,
2013-03-20 11:15:00,42.5,33.0,30.11,SSE,155,16.0,23.0,70,0.00,,,0.00,62,weatherlink.com 1.10,2013-03-20 17:15:00,
2013-03-20 11:30:00,41.7,34.0,30.11,South,169,10.0,19.0,73,0.01,,,0.01,84,weatherlink.com 1.10,2013-03-20 17:30:00,
2013-03-20 11:45:00,42.0,34.0,30.10,SSE,154,14.0,21.0,74,0.01,,,0.01,156,weatherlink.com 1.10,2013-03-20 17:45:00,
2013-03-20 12:00:00,42.9,35.0,30.09,SSE,154,15.0,28.0,73,0.02,,,0.02,410,weatherlink.com 1.10,2013-03-20 18:00:00,
2013-03-20 12:15:00,44.3,36.0,30.09,South,174,9.0,24.0,73,0.02,,,0.02,388,weatherlink.com 1.10,2013-03-20 18:15:00,
2013-03-20 12:30:00,44.2,35.0,30.07,SSE,147,20.0,23.0,71,0.01,,,0.02,345,weatherlink.com 1.10,2013-03-20 18:30:00,
2013-03-20 12:45:00,44.9,36.0,30.06,SE,144,10.0,22.0,71,0.01,,,0.02,399,weatherlink.com 1.10,2013-03-20 18:45:00,
2013-03-20 13:00:00,45.7,36.0,30.05,SSE,157,12.0,22.0,68,0.00,,,0.02,424,weatherlink.com 1.10,2013-03-20 19:00:00,
2013-03-20 13:15:00,46.4,37.0,30.03,SE,144,13.0,22.0,69,0.00,,,0.02,703,weatherlink.com 1.10,2013-03-20 19:15:00,
2013-03-20 13:30:00,48.1,37.0,30.03,SSW,213,21.0,32.0,66,0.00,,,0.02,921,weatherlink.com 1.10,2013-03-20 19:30:00,
2013-03-20 13:45:00,48.1,38.0,30.02,SSW,201,17.0,29.0,68,0.00,,,0.02,345,weatherlink.com 1.10,2013-03-20 19:45:00,
2013-03-20 14:00:00,48.4,39.0,30.00,SW,219,15.0,22.0,69,0.00,,,0.02,429,weatherlink.com 1.10,2013-03-20 20:00:00,
2013-03-20 14:15:00,49.3,38.0,29.98,SSW,207,15.0,18.0,66,0.00,,,0.02,339,weatherlink.com 1.10,2013-03-20 20:15:00,
2013-03-20 14:31:00,50.3,39.0,29.97,SSW,207,15.0,18.0,65,0.00,,,0.02,413,weatherlink.com 1.10,2013-03-20 20:31:00,
2013-03-20 14:46:00,50.8,38.0,29.96,SSW,206,17.0,23.0,63,0.00,,,0.02,364,weatherlink.com 1.10,2013-03-20 20:46:00,
2013-03-20 15:01:00,51.1,39.0,29.95,SSW,207,13.0,20.0,64,0.00,,,0.02,292,weatherlink.com 1.10,2013-03-20 21:01:00,
2013-03-20 15:16:00,51.2,38.0,29.94,South,174,7.0,17.0,61,0.00,,,0.02,193,weatherlink.com 1.10,2013-03-20 21:16:00,
2013-03-20 15:31:00,50.5,37.0,29.93,SW,223,12.0,33.0,61,0.00,,,0.02,141,weatherlink.com 1.10,2013-03-20 21:31:00,
2013-03-20 15:46:00,50.1,39.0,29.93,SSW,209,14.0,23.0,67,0.00,,,0.02,318,weatherlink.com 1.10,2013-03-20 21:46:00,
2013-03-20 16:16:00,52.4,37.0,29.89,SSE,163,8.0,17.0,57,0.00,,,0.02,744,weatherlink.com 1.10,2013-03-20 22:16:00,
2013-03-20 16:31:00,53.9,39.0,29.87,South,191,17.0,21.0,57,0.00,,,0.02,635,weatherlink.com 1.10,2013-03-20 22:31:00,
2013-03-20 16:46:00,54.8,37.0,29.84,SSW,192,24.0,30.0,51,0.01,,,0.03,503,weatherlink.com 1.10,2013-03-20 22:46:00,
2013-03-20 17:01:00,55.0,35.0,29.84,SSW,203,26.0,28.0,47,0.01,,,0.03,473,weatherlink.com 1.10,2013-03-20 23:01:00,
2013-03-20 17:16:00,55.4,36.0,29.83,SW,215,14.0,28.0,48,0.01,,,0.03,418,weatherlink.com 1.10,2013-03-20 23:16:00,
2013-03-20 17:31:00,55.5,35.0,29.83,SSW,197,17.0,22.0,46,0.01,,,0.03,359,weatherlink.com 1.10,2013-03-20 23:31:00,
2013-03-20 17:46:00,54.6,36.0,29.83,South,187,21.0,28.0,49,0.00,,,0.03,79,weatherlink.com 1.10,2013-03-20 23:46:00,
2013-03-20 18:01:00,54.4,35.0,29.84,NW,307,6.0,26.0,48,0.00,,,0.03,25,weatherlink.com 1.10,2013-03-21 00:01:00,
2013-03-20 18:16:00,40.7,36.0,29.91,NW,304,22.0,47.0,82,0.01,,,0.04,0,weatherlink.com 1.10,2013-03-21 00:16:00,
2013-03-20 18:31:00,40.3,34.0,29.93,WNW,288,37.0,52.0,77,0.04,,,0.07,0,weatherlink.com 1.10,2013-03-21 00:31:00,
2013-03-20 18:46:00,39.6,33.0,29.95,NW,308,20.0,46.0,78,0.05,,,0.08,5,weatherlink.com 1.10,2013-03-21 00:46:00,
2013-03-20 19:01:00,40.3,31.0,29.96,NW,316,24.0,42.0,70,0.05,,,0.08,5,weatherlink.com 1.10,2013-03-21 01:01:00,
2013-03-20 19:16:00,38.9,32.0,29.97,NE,42,22.0,31.0,77,0.04,,,0.08,0,weatherlink.com 1.10,2013-03-21 01:16:00,
2013-03-20 19:46:00,34.9,31.0,30.01,North,355,40.0,50.0,86,0.00,,,0.08,0,weatherlink.com 1.10,2013-03-21 01:46:00,
2013-03-20 20:01:00,34.7,31.0,30.03,North,10,24.0,44.0,87,0.00,,,0.08,0,weatherlink.com 1.10,2013-03-21 02:01:00,
2013-03-20 20:16:00,37.1,29.0,30.03,North,360,7.0,32.0,73,0.00,,,0.08,0,weatherlink.com 1.10,2013-03-21 02:16:00,
2013-03-20 20:31:00,36.9,30.0,30.03,ENE,69,4.0,11.0,75,0.00,,,0.08,0,weatherlink.com 1.10,2013-03-21 02:31:00,
2013-03-20 20:46:00,37.8,29.0,30.04,WSW,242,3.0,6.0,70,0.00,,,0.08,0,weatherlink.com 1.10,2013-03-21 02:46:00,
2013-03-20 21:01:00,37.0,30.0,30.05,West,262,2.0,6.0,75,0.00,,,0.08,0,weatherlink.com 1.10,2013-03-21 03:01:00,
2013-03-20 21:16:00,36.8,29.0,30.04,SE,130,4.0,9.0,72,0.00,,,0.08,0,weatherlink.com 1.10,2013-03-21 03:16:00,
2013-03-20 21:31:00,35.5,31.0,30.05,South,173,3.0,7.0,82,0.00,,,0.08,0,weatherlink.com 1.10,2013-03-21 03:31:00,
2013-03-20 21:46:00,35.5,31.0,30.06,South,178,4.0,11.0,82,0.00,,,0.08,0,weatherlink.com 1.10,2013-03-21 03:46:00,
2013-03-20 22:01:00,37.1,28.0,30.05,SSW,194,7.0,8.0,71,0.00,,,0.08,0,weatherlink.com 1.10,2013-03-21 04:01:00,
2013-03-20 22:16:00,36.2,30.0,30.06,South,178,2.0,8.0,79,0.00,,,0.08,0,weatherlink.com 1.10,2013-03-21 04:16:00,
2013-03-20 22:31:00,36.4,30.0,30.06,SSE,157,2.0,5.0,77,0.00,,,0.08,0,weatherlink.com 1.10,2013-03-21 04:31:00,
2013-03-20 22:46:00,36.6,29.0,30.07,South,173,3.0,4.0,74,0.00,,,0.08,0,weatherlink.com 1.10,2013-03-21 04:46:00,
2013-03-20 23:01:00,36.4,30.0,30.07,SSE,148,11.0,12.0,76,0.00,,,0.08,0,weatherlink.com 1.10,2013-03-21 05:01:00,
2013-03-20 23:17:00,36.6,29.0,30.07,South,183,5.0,13.0,74,0.00,,,0.08,0,weatherlink.com 1.10,2013-03-21 05:17:00,
2013-03-20 23:31:00,35.8,29.0,30.08,South,188,6.0,15.0,77,0.00,,,0.08,0,weatherlink.com 1.10,2013-03-21 05:31:00,
2013-03-20 23:47:00,35.2,30.0,30.08,SSE,167,1.0,8.0,80,0.00,,,0.08,0,weatherlink.com 1.10,2013-03-21 05:47:00,